Location: Alsip
(41.6689°N, 87.7387°W)
Time: 14:20:46
(UTC+00:00)

Cosmos 2016 Rocket - Pass Details

Date: 14 July 2020
Orbit: 948 x 999 km, 83.0° (Epoch: 05 August)

Event Time Altitude Azimuth Distance (km) Brightness Sun altitude
Exits shadow 07:07:35 37° 142° (SE) 1,439 4.6 -24.7°
Maximum altitude 07:09:36 52° 91° (E) 1,179 4.5 -24.5°
Drops below altitude 10° 07:15:36 10° 17° (NNE) 2,722 7.4 -24.2°
Sets 07:18:11 0° 13° (NNE) 3,681 8.4 -24.0°
